Athens Eleftherios, Greece

8:11 PM EET on November 18, 2017 (GMT +0200)
Eleftherios Venizelos International

Weather History for LGAV - June, 2014

Change the Weather History Date:

Friday, June 6, 2014

  Actual Average (LGAT) Record (LGAT)
Temperature  
Mean Temperature 68 °F -  
Max Temperature 80 °F 82 °F 89 °F (1999)
Min Temperature 55 °F 66 °F 64 °F (2001)
Cooling Degree Days 2    
Growing Degree Days 18 (Base 50)    
Moisture  
Dew Point 54 °F    
Average Humidity 58    
Maximum Humidity 82    
Minimum Humidity 42    
Precipitation  
Precipitation 0.00 in - - ()
Sea Level Pressure  
Sea Level Pressure 29.92 in    
Wind  
Wind Speed 5 mph ()    
Max Wind Speed 15 mph    
Max Gust Speed -    
Visibility 6.2 miles    
Events      
Averages and records for this station are not official NWS values.
T = Trace of Precipitation, MM = Missing Value Source: Averaged Metar Reports

Daily Weather History Graph

Daily Weather History Graph

Search for Another Location

Airport or City:

Trip Planner

Search our weather history database for the weather conditions in past years. The results will help you decide how hot, cold, wet, or windy it might be!

Date:

Astronomy

Jun. 06, 2014 Rise Set
Actual Time 6:02 AM EEST 8:43 PM EEST
Civil Twilight 5:31 AM EEST 9:15 PM EEST
Nautical Twilight 4:52 AM EEST 9:53 PM EEST
Astronomical Twilight 4:08 AM EEST 10:37 PM EEST
Moon 1:51 PM EEST (6/6) 1:37 AM EEST (6/6)
Length of Visible Light 15h 43m
Length of Day
14h 41m
First Quarter, 55% of the Moon is Illuminated
Jun 6
First Quarter
Jun 13
Full
Jun 19
Last Quarter
Jun 27
New
Jul 5
First Quarter

Hourly Weather History & Observations

Time (EEST) Temp. Heat Index Dew Point Humidity Pressure Visibility Wind Dir Wind Speed Gust Speed Precip Events Conditions
12:20 AM 62.6 °F - 53.6 °F 72% 29.92 in - WNW 5.8 mph - N/A   Clear
12:50 AM 66.2 °F - 55.4 °F 68% 29.92 in - NW 3.5 mph - N/A   Clear
1:20 AM 66.2 °F - 53.6 °F 64% 29.89 in - Variable 2.3 mph - N/A   Clear
1:50 AM 62.6 °F - 50.0 °F 63% 29.89 in - Variable 1.2 mph - N/A   Clear
2:20 AM 62.6 °F - 51.8 °F 68% 29.89 in - Variable 1.2 mph - N/A   Clear
3:20 AM 59.0 °F - 51.8 °F 77% 29.89 in - ESE 2.3 mph - N/A   Clear
3:50 AM 59.0 °F - 51.8 °F 77% 29.89 in - Variable 2.3 mph - N/A   Clear
4:20 AM 59.0 °F - 51.8 °F 77% 29.89 in - WNW 4.6 mph - N/A   Clear
4:50 AM 59.0 °F - 53.6 °F 82% 29.89 in - Calm Calm - N/A   Clear
5:20 AM 60.8 °F - 51.8 °F 72% 29.89 in - Variable 1.2 mph - N/A   Clear
5:50 AM 55.4 °F - 50.0 °F 82% 29.89 in 6.2 mi West 2.3 mph - N/A   Scattered Clouds
6:20 AM 59.0 °F - 53.6 °F 82% 29.92 in 6.2 mi Variable 2.3 mph - N/A   Scattered Clouds
6:50 AM 57.2 °F - 51.8 °F 82% 29.92 in 6.2 mi NNE 3.5 mph - N/A   Scattered Clouds
7:20 AM 62.6 °F - 57.2 °F 82% 29.92 in 6.2 mi Variable 3.5 mph - N/A   Scattered Clouds
7:50 AM 69.8 °F - 57.2 °F 64% 29.92 in 6.2 mi NNE 4.6 mph - N/A   Scattered Clouds
8:20 AM 69.8 °F - 55.4 °F 60% 29.92 in 6.2 mi SE 5.8 mph - N/A   Scattered Clouds
8:50 AM 73.4 °F - 55.4 °F 53% 29.92 in 6.2 mi East 4.6 mph - N/A   Scattered Clouds
9:20 AM 75.2 °F - 55.4 °F 50% 29.92 in 6.2 mi NE 11.5 mph - N/A   Scattered Clouds
9:50 AM 75.2 °F - 55.4 °F 50% 29.92 in 6.2 mi ENE 12.7 mph - N/A   Scattered Clouds
10:20 AM 75.2 °F - 55.4 °F 50% 29.95 in 6.2 mi ENE 15.0 mph - N/A   Scattered Clouds
10:50 AM 77.0 °F - 55.4 °F 47% 29.95 in 6.2 mi NE 15.0 mph - N/A   Partly Cloudy
11:20 AM 78.8 °F - 55.4 °F 44% 29.95 in 6.2 mi NE 9.2 mph - N/A   Partly Cloudy
11:50 AM 78.8 °F - 55.4 °F 44% 29.95 in 6.2 mi ENE 6.9 mph - N/A   Partly Cloudy
12:20 PM 78.8 °F - 57.2 °F 47% 29.92 in 6.2 mi East 10.4 mph - N/A   Partly Cloudy
12:50 PM 80.6 °F 80.5 °F 55.4 °F 42% 29.92 in 6.2 mi East 9.2 mph - N/A   Partly Cloudy
1:20 PM 78.8 °F - 53.6 °F 42% 29.92 in 6.2 mi East 10.4 mph - N/A   Partly Cloudy
1:50 PM 80.6 °F 80.5 °F 55.4 °F 42% 29.92 in 6.2 mi ESE 11.5 mph - N/A   Partly Cloudy
2:20 PM 78.8 °F - 55.4 °F 44% 29.92 in 6.2 mi East 10.4 mph - N/A   Partly Cloudy
2:50 PM 78.8 °F - 53.6 °F 42% 29.92 in 6.2 mi East 6.9 mph - N/A   Partly Cloudy
3:20 PM 77.0 °F - 55.4 °F 47% 29.92 in 6.2 mi ESE 10.4 mph - N/A   Scattered Clouds
3:50 PM 78.8 °F - 55.4 °F 44% 29.92 in 6.2 mi East 8.1 mph - N/A   Scattered Clouds
4:20 PM 78.8 °F - 53.6 °F 42% 29.92 in 6.2 mi ESE 6.9 mph - N/A   Scattered Clouds
4:50 PM 78.8 °F - 53.6 °F 42% 29.92 in 6.2 mi SE 6.9 mph - N/A   Scattered Clouds
5:20 PM 78.8 °F - 55.4 °F 44% 29.92 in 6.2 mi ESE 5.8 mph - N/A   Scattered Clouds
5:50 PM 77.0 °F - 53.6 °F 44% 29.92 in 6.2 mi ESE 6.9 mph - N/A   Scattered Clouds
6:20 PM 77.0 °F - 53.6 °F 44% 29.89 in 6.2 mi ENE 6.9 mph - N/A   Scattered Clouds
6:50 PM 75.2 °F - 53.6 °F 47% 29.92 in 6.2 mi ENE 4.6 mph - N/A   Scattered Clouds
7:20 PM 75.2 °F - 51.8 °F 44% 29.92 in 6.2 mi East 5.8 mph - N/A   Scattered Clouds
7:50 PM 73.4 °F - 53.6 °F 50% 29.92 in 6.2 mi NNE 4.6 mph - N/A   Scattered Clouds
8:20 PM 71.6 °F - 53.6 °F 53% 29.92 in 6.2 mi SSW 5.8 mph - N/A   Scattered Clouds
8:50 PM 69.8 °F - 57.2 °F 64% 29.92 in 6.2 mi SSW 4.6 mph - N/A   Scattered Clouds
9:20 PM 68.0 °F - 57.2 °F 68% 29.92 in 6.2 mi Calm Calm - N/A   Partly Cloudy
9:50 PM 68.0 °F - 55.4 °F 64% 29.92 in 6.2 mi WSW 4.6 mph - N/A   Partly Cloudy
10:20 PM 66.2 °F - 55.4 °F 68% 29.95 in 6.2 mi SW 4.6 mph - N/A   Partly Cloudy
10:50 PM 66.2 °F - 55.4 °F 68% 29.95 in 6.2 mi Variable 3.5 mph - N/A   Partly Cloudy
11:20 PM 66.2 °F - 55.4 °F 68% 29.95 in 6.2 mi West 3.5 mph - N/A   Partly Cloudy
11:50 PM 64.4 °F - 55.4 °F 73% 29.95 in 6.2 mi West 4.6 mph - N/A   Partly Cloudy